When you browse on this site, cookies collect data to enhance your experience and personalize the content and advertising you see.
Visit our Privacy Policy to learn more. By continuing to use the site, you agree to this use of cookies and data.
  • In Hungary
  • List of Countries
  • For 7 days
  • Water Temperature
  • Weather Map
  • News
  • Weather Widgets
  • user-avatar
    Login

    Hourly Weather Zelenyi Bir

    Today, 24 August, Saturday

    Time Temperature Precipitation Wind Pressure Humidity
    00:00 +17°C° 0 mm 3 mps 752 mmHg 85%
    01:00 +17°C° 0 mm 3 mps 752 mmHg 88%
    02:00 +16°C° 0 mm 3 mps 752 mmHg 89%
    03:00 +16°C° 0 mm 3 mps 752 mmHg 90%
    04:00 +16°C° 0 mm 3 mps 752 mmHg 92%
    05:00 +14°C° 0 mm 3 mps 752 mmHg 93%
    06:00 +17°C° 0 mm 3 mps 752 mmHg 86%
    07:00 +18°C° 0 mm 3 mps 752 mmHg 80%
    08:00 +20°C° 0 mm 3 mps 752 mmHg 72%
    09:00 +21°C° 0 mm 3 mps 752 mmHg 67%
    10:00 +24°C° 0 mm 3 mps 752 mmHg 62%
    11:00 +25°C° 0 mm 3 mps 752 mmHg 57%
    12:00 +26°C° 0 mm 3 mps 752 mmHg 54%
    13:00 +27°C° 0 mm 3 mps 752 mmHg 50%
    14:00 +28°C° 0 mm 3 mps 751 mmHg 47%
    15:00 +28°C° 0 mm 3 mps 751 mmHg 47%
    16:00 +27°C° 0 mm 3 mps 751 mmHg 48%
    17:00 +27°C° 0 mm 3 mps 751 mmHg 48%
    18:00 +25°C° 0 mm 3 mps 751 mmHg 50%
    19:00 +22°C° 0 mm 3 mps 751 mmHg 53%
    20:00 +20°C° 0 mm 3 mps 751 mmHg 55%
    21:00 +19°C° 0 mm 3 mps 751 mmHg 57%
    22:00 +19°C° 0 mm 3 mps 752 mmHg 58%
    23:00 +18°C° 0 mm 2 mps 752 mmHg 60%

    Tomorrow, 25 August, Sunday

    Time Temperature Precipitation Wind Pressure Humidity
    00:00 +17°C° 0 mm 2 mps 752 mmHg 62%
    01:00 +17°C° 0 mm 2 mps 752 mmHg 63%
    02:00 +16°C° 0 mm 2 mps 752 mmHg 65%
    03:00 +16°C° 0 mm 2 mps 752 mmHg 67%
    04:00 +15°C° 0 mm 2 mps 752 mmHg 69%
    05:00 +15°C° 0 mm 2 mps 751 mmHg 71%
    06:00 +16°C° 0 mm 2 mps 752 mmHg 67%
    07:00 +18°C° 0 mm 3 mps 752 mmHg 63%
    08:00 +19°C° 0 mm 3 mps 752 mmHg 59%
    09:00 +21°C° 0 mm 3 mps 752 mmHg 53%
    10:00 +24°C° 0 mm 3 mps 752 mmHg 47%
    11:00 +25°C° 0 mm 3 mps 752 mmHg 41%
    12:00 +26°C° 0 mm 3 mps 752 mmHg 39%
    13:00 +27°C° 0 mm 3 mps 752 mmHg 37%
    14:00 +28°C° 0 mm 3 mps 752 mmHg 35%
    15:00 +27°C° 0 mm 3 mps 752 mmHg 37%
    16:00 +27°C° 0 mm 3 mps 751 mmHg 40%
    17:00 +27°C° 0 mm 2 mps 751 mmHg 43%
    18:00 +25°C° 0 mm 2 mps 751 mmHg 49%
    19:00 +23°C° 0 mm 2 mps 752 mmHg 55%
    20:00 +20°C° 0 mm 2 mps 752 mmHg 61%
    21:00 +20°C° 0 mm 2 mps 752 mmHg 65%
    22:00 +19°C° 0 mm 2 mps 752 mmHg 69%
    23:00 +18°C° 0 mm 3 mps 752 mmHg 73%

    Day after tomorrow, 26 August, Monday

    Time Temperature Precipitation Wind Pressure Humidity
    00:00 +18°C° 0 mm 2 mps 752 mmHg 76%
    01:00 +17°C° 0 mm 2 mps 752 mmHg 79%
    02:00 +17°C° 0 mm 2 mps 752 mmHg 82%
    03:00 +16°C° 0 mm 2 mps 752 mmHg 84%
    04:00 +16°C° 0 mm 2 mps 752 mmHg 86%
    05:00 +16°C° 0 mm 2 mps 752 mmHg 88%
    06:00 +17°C° 0 mm 2 mps 752 mmHg 82%
    07:00 +19°C° 0 mm 2 mps 752 mmHg 75%
    08:00 +21°C° 0 mm 2 mps 752 mmHg 69%
    09:00 +23°C° 0 mm 2 mps 752 mmHg 63%
    10:00 +24°C° 0 mm 2 mps 752 mmHg 57%
    11:00 +26°C° 0 mm 3 mps 752 mmHg 51%
    12:00 +27°C° 0 mm 2 mps 752 mmHg 48%
    13:00 +27°C° 0 mm 2 mps 752 mmHg 44%
    14:00 +28°C° 0 mm 2 mps 752 mmHg 41%
    15:00 +28°C° 0 mm 2 mps 751 mmHg 42%
    16:00 +28°C° 0 mm 2 mps 751 mmHg 43%
    17:00 +27°C° 0 mm 2 mps 751 mmHg 44%
    18:00 +25°C° 0 mm 2 mps 751 mmHg 48%
    19:00 +23°C° 0 mm 2 mps 751 mmHg 52%
    20:00 +20°C° 0 mm 2 mps 751 mmHg 57%
    21:00 +20°C° 0 mm 2 mps 751 mmHg 59%
    22:00 +19°C° 0 mm 2 mps 751 mmHg 60%
    23:00 +18°C° 0 mm 2 mps 751 mmHg 62%

    27 August, Tuesday

    Time Temperature Precipitation Wind Pressure Humidity
    00:00 +18°C° 0 mm 2 mps 751 mmHg 62%
    01:00 +17°C° 0 mm 2 mps 750 mmHg 62%
    02:00 +17°C° 0 mm 2 mps 750 mmHg 62%
    03:00 +16°C° 0 mm 1 mps 750 mmHg 63%
    04:00 +16°C° 0 mm 1 mps 750 mmHg 64%
    05:00 +15°C° 0 mm 1 mps 750 mmHg 64%
    06:00 +18°C° 0 mm 1 mps 750 mmHg 60%
    07:00 +20°C° 0 mm 1 mps 750 mmHg 55%
    08:00 +22°C° 0 mm 1 mps 750 mmHg 51%
    09:00 +23°C° 0 mm 2 mps 750 mmHg 47%
    10:00 +25°C° 0 mm 2 mps 750 mmHg 44%
    11:00 +26°C° 0 mm 2 mps 750 mmHg 40%
    12:00 +27°C° 0 mm 2 mps 750 mmHg 38%
    13:00 +27°C° 0 mm 2 mps 750 mmHg 37%
    14:00 +28°C° 0 mm 3 mps 750 mmHg 35%
    15:00 +28°C° 0 mm 3 mps 749 mmHg 38%
    16:00 +27°C° 0 mm 2 mps 749 mmHg 40%
    17:00 +27°C° 0 mm 2 mps 749 mmHg 42%
    18:00 +25°C° 0 mm 2 mps 749 mmHg 47%
    19:00 +23°C° 0 mm 2 mps 749 mmHg 51%
    20:00 +20°C° 0 mm 2 mps 749 mmHg 56%
    21:00 +20°C° 0 mm 2 mps 749 mmHg 58%
    22:00 +19°C° 0 mm 2 mps 749 mmHg 60%
    23:00 +19°C° 0 mm 1 mps 749 mmHg 62%

    28 August, Wednesday

    Time Temperature Precipitation Wind Pressure Humidity
    00:00 +19°C° 0 mm 1 mps 749 mmHg 66%
    01:00 +18°C° 0 mm 1 mps 749 mmHg 70%
    02:00 +18°C° 0 mm 1 mps 749 mmHg 74%
    03:00 +18°C° 0 mm 1 mps 749 mmHg 79%
    04:00 +16°C° 0 mm 2 mps 749 mmHg 83%
    05:00 +16°C° 0 mm 2 mps 749 mmHg 88%
    06:00 +18°C° 0 mm 2 mps 749 mmHg 82%
    07:00 +19°C° 0 mm 2 mps 750 mmHg 77%
    08:00 +20°C° 0 mm 2 mps 750 mmHg 72%
    09:00 +22°C° 0 mm 3 mps 750 mmHg 65%
    10:00 +24°C° 0 mm 3 mps 750 mmHg 57%
    11:00 +25°C° 0 mm 3 mps 750 mmHg 50%
    12:00 +26°C° 0 mm 3 mps 750 mmHg 47%
    13:00 +26°C° 0 mm 3 mps 749 mmHg 43%
    14:00 +27°C° 0 mm 3 mps 749 mmHg 40%
    15:00 +26°C° 0 mm 3 mps 749 mmHg 40%
    16:00 +26°C° 0 mm 3 mps 749 mmHg 41%
    17:00 +25°C° 0 mm 3 mps 749 mmHg 42%
    18:00 +24°C° 0 mm 3 mps 749 mmHg 46%
    19:00 +21°C° 0 mm 3 mps 749 mmHg 50%
    20:00 +19°C° 0 mm 3 mps 749 mmHg 54%
    21:00 +18°C° 0 mm 3 mps 749 mmHg 55%
    22:00 +17°C° 0 mm 3 mps 750 mmHg 55%
    23:00 +16°C° 0 mm 3 mps 750 mmHg 56%

    29 August, Thursday

    Time Temperature Precipitation Wind Pressure Humidity
    00:00 +16°C° 0 mm 3 mps 750 mmHg 57%
    01:00 +14°C° 0 mm 3 mps 750 mmHg 57%
    02:00 +14°C° 0 mm 2 mps 750 mmHg 58%
    03:00 +13°C° 0 mm 2 mps 750 mmHg 58%
    04:00 +12°C° 0 mm 3 mps 750 mmHg 58%
    05:00 +12°C° 0 mm 3 mps 750 mmHg 57%
    06:00 +13°C° 0 mm 3 mps 750 mmHg 55%
    07:00 +13°C° 0 mm 3 mps 750 mmHg 53%
    08:00 +14°C° 0 mm 3 mps 750 mmHg 51%
    09:00 +17°C° 0 mm 3 mps 750 mmHg 46%
    10:00 +19°C° 0 mm 4 mps 751 mmHg 41%
    11:00 +20°C° 0 mm 4 mps 751 mmHg 36%
    12:00 +21°C° 0 mm 4 mps 750 mmHg 33%
    13:00 +21°C° 0 mm 3 mps 750 mmHg 30%
    14:00 +22°C° 0 mm 3 mps 750 mmHg 27%
    15:00 +22°C° 0 mm 3 mps 750 mmHg 29%
    16:00 +21°C° 0 mm 3 mps 750 mmHg 31%
    17:00 +21°C° 0 mm 3 mps 750 mmHg 32%
    18:00 +19°C° 0 mm 3 mps 750 mmHg 36%
    19:00 +17°C° 0 mm 3 mps 750 mmHg 39%
    20:00 +14°C° 0 mm 3 mps 750 mmHg 42%
    21:00 +13°C° 0 mm 3 mps 750 mmHg 46%
    22:00 +12°C° 0 mm 3 mps 750 mmHg 49%
    23:00 +11°C° 0 mm 3 mps 750 mmHg 53%
    Show more